| time (UTC) | temp C | wind direction | speed KPH | gust KPH | rain 1hr cm | rain 24hr cm | rain mn cm | humidity % | barometer mb |
| 20260510061040 | 16 | 0 | 1.6 | 6.4 | 0.00 | 0.00 | 0.00 | 54 | 1028.0 |
| 20260510060540 | 16 | 110 | 1.6 | 4.8 | 0.00 | 0.00 | 0.00 | 53 | 1028.0 |
| 20260510060050 | 17 | 121 | 1.6 | 8.0 | 0.00 | 0.00 | 0.00 | 53 | 1028.1 |
| 20260510055539 | 17 | 53 | 4.8 | 11.3 | 0.00 | 0.00 | 0.00 | 53 | 1028.0 |
| 20260510055039 | 17 | 128 | 3.2 | 11.3 | 0.00 | 0.00 | 0.00 | 53 | 1028.0 |
| 20260510054551 | 17 | 131 | 4.8 | 11.3 | 0.00 | 0.00 | 0.00 | 52 | 1028.2 |
| 20260510054040 | 17 | 163 | 3.2 | 14.5 | 0.00 | 0.00 | 0.00 | 50 | 1028.1 |
| 20260510053540 | 18 | 130 | 4.8 | 14.5 | 0.00 | 0.00 | 0.00 | 50 | 1028.1 |
| 20260510053053 | 18 | 137 | 3.2 | 11.3 | 0.00 | 0.00 | 0.00 | 48 | 1028.1 |
| 20260510052543 | 19 | 117 | 1.6 | 6.4 | 0.00 | 0.00 | 0.00 | 48 | 1028.1 |
| 20260510052039 | 18 | 0 | 0.0 | 4.8 | 0.00 | 0.00 | 0.00 | 47 | 1028.1 |
| 20260510051602 | 18 | 42 | 0.0 | 4.8 | 0.00 | 0.00 | 0.00 | 48 | 1028.0 |
| 20260510051039 | 18 | 44 | 0.0 | 6.4 | 0.00 | 0.00 | 0.00 | 48 | 1028.0 |
| 20260510050541 | 18 | 0 | 1.6 | 6.4 | 0.00 | 0.00 | 0.00 | 48 | 1028.1 |
| 20260510050059 | 18 | 51 | 1.6 | 14.5 | 0.00 | 0.00 | 0.00 | 49 | 1028.0 |
| 20260510045539 | 18 | 2 | 1.6 | 14.5 | 0.00 | 0.00 | 0.00 | 50 | 1028.0 |
| 20260510045039 | 18 | 141 | 1.6 | 8.0 | 0.00 | 0.00 | 0.00 | 49 | 1028.1 |
| 20260510044552 | 18 | 75 | 0.0 | 11.3 | 0.00 | 0.00 | 0.00 | 50 | 1028.0 |
| 20260510044041 | 18 | 125 | 1.6 | 11.3 | 0.00 | 0.00 | 0.00 | 50 | 1028.1 |
| 20260510043539 | 18 | 150 | 0.0 | 6.4 | 0.00 | 0.00 | 0.00 | 49 | 1028.1 |
| 20260510043054 | 18 | 141 | 1.6 | 9.7 | 0.00 | 0.00 | 0.00 | 49 | 1028.2 |
| 20260510042539 | 18 | 101 | 3.2 | 12.9 | 0.00 | 0.00 | 0.00 | 50 | 1028.1 |
| 20260510042038 | 17 | 0 | 1.6 | 12.9 | 0.00 | 0.00 | 0.00 | 51 | 1028.1 |
| 20260510041551 | 18 | 0 | 6.4 | 12.9 | 0.00 | 0.00 | 0.00 | 49 | 1028.2 |
| 20260510041039 | 18 | 79 | 1.6 | 9.7 | 0.00 | 0.00 | 0.00 | 49 | 1028.3 |
| 20260510040537 | 18 | 124 | 0.0 | 11.3 | 0.00 | 0.00 | 0.00 | 49 | 1028.3 |
| 20260510035539 | 18 | 127 | 3.2 | 11.3 | 0.00 | 0.00 | 0.00 | 51 | 1028.3 |
| 20260510035040 | 17 | 49 | 0.0 | 4.8 | 0.00 | 0.00 | 0.00 | 53 | 1028.4 |
| 20260510034548 | 18 | 56 | 1.6 | 11.3 | 0.00 | 0.00 | 0.00 | 51 | 1028.5 |
| 20260510034040 | 17 | 0 | 3.2 | 11.3 | 0.00 | 0.00 | 0.00 | 54 | 1028.6 |
| 20260510033542 | 17 | 102 | 3.2 | 9.7 | 0.00 | 0.00 | 0.00 | 56 | 1028.7 |
| 20260510033056 | 17 | 122 | 3.2 | 12.9 | 0.00 | 0.00 | 0.00 | 54 | 1028.6 |
| 20260510032539 | 17 | 126 | 6.4 | 12.9 | 0.00 | 0.00 | 0.00 | 53 | 1028.7 |
| 20260510032040 | 17 | 87 | 1.6 | 3.2 | 0.00 | 0.00 | 0.00 | 54 | 1028.8 |
| 20260510031555 | 17 | 65 | 1.6 | 6.4 | 0.00 | 0.00 | 0.00 | 54 | 1028.8 |
| 20260510031040 | 17 | 65 | 1.6 | 12.9 | 0.00 | 0.00 | 0.00 | 55 | 1029.0 |
| 20260510030539 | 16 | 58 | 1.6 | 16.1 | 0.00 | 0.00 | 0.00 | 56 | 1029.0 |
| 20260510030059 | 16 | 183 | 3.2 | 16.1 | 0.00 | 0.00 | 0.00 | 57 | 1029.1 |
| 20260510025539 | 16 | 176 | 3.2 | 9.7 | 0.00 | 0.00 | 0.00 | 59 | 1029.1 |
| 20260510025040 | 16 | 142 | 3.2 | 11.3 | 0.00 | 0.00 | 0.00 | 58 | 1029.3 |
| 20260510024554 | 16 | 147 | 6.4 | 12.9 | 0.00 | 0.00 | 0.00 | 59 | 1029.4 |
| 20260510024041 | 16 | 174 | 6.4 | 12.9 | 0.00 | 0.00 | 0.00 | 60 | 1029.5 |
| 20260510023539 | 16 | 144 | 4.8 | 9.7 | 0.00 | 0.00 | 0.00 | 60 | 1029.6 |
| 20260510023052 | 16 | 135 | 4.8 | 8.0 | 0.00 | 0.00 | 0.00 | 59 | 1029.6 |
| 20260510022540 | 16 | 98 | 3.2 | 8.0 | 0.00 | 0.00 | 0.00 | 58 | 1029.8 |
| 20260510022038 | 16 | 123 | 3.2 | 8.0 | 0.00 | 0.00 | 0.00 | 58 | 1030.0 |
| 20260510021642 | 16 | 139 | 1.6 | 8.0 | 0.00 | 0.00 | 0.00 | 58 | 1029.9 |
| 20260510021039 | 16 | 103 | 3.2 | 8.0 | 0.00 | 0.00 | 0.00 | 58 | 1029.9 |
| 20260510020541 | 16 | 147 | 3.2 | 8.0 | 0.00 | 0.00 | 0.00 | 57 | 1030.0 |
| 20260510020059 | 16 | 89 | 0.0 | 1.6 | 0.00 | 0.00 | 0.00 | 59 | 1030.0 |
| 20260510015539 | 16 | 0 | 0.0 | 4.8 | 0.00 | 0.00 | 0.00 | 58 | 1030.2 |
| 20260510015040 | 15 | 89 | 1.6 | 6.4 | 0.00 | 0.00 | 0.00 | 59 | 1030.4 |
| 20260510014558 | 15 | 68 | 1.6 | 8.0 | 0.00 | 0.00 | 0.00 | 60 | 1030.3 |
| 20260510014040 | 15 | 127 | 3.2 | 9.7 | 0.00 | 0.00 | 0.00 | 58 | 1030.6 |
| 20260510013541 | 15 | 134 | 4.8 | 9.7 | 0.00 | 0.00 | 0.00 | 58 | 1030.5 |
| 20260510013100 | 16 | 129 | 1.6 | 6.4 | 0.00 | 0.00 | 0.00 | 59 | 1030.6 |
| 20260510012539 | 15 | 122 | 1.6 | 6.4 | 0.00 | 0.00 | 0.00 | 61 | 1030.6 |
| 20260510012039 | 15 | 54 | 1.6 | 4.8 | 0.00 | 0.00 | 0.00 | 60 | 1030.6 |
| 20260510011549 | 15 | 75 | 1.6 | 4.8 | 0.00 | 0.00 | 0.00 | 62 | 1030.6 |
| 20260510011040 | 15 | 96 | 0.0 | 4.8 | 0.00 | 0.00 | 0.00 | 63 | 1030.6 |
| 20260510010540 | 15 | 71 | 0.0 | 4.8 | 0.00 | 0.00 | 0.00 | 65 | 1030.5 |
| 20260510010057 | 15 | 96 | 1.6 | 4.8 | 0.00 | 0.00 | 0.00 | 65 | 1030.6 |
| 20260510005538 | 15 | 72 | 0.0 | 3.2 | 0.00 | 0.00 | 0.00 | 66 | 1030.5 |
| 20260510005037 | 14 | 72 | 1.6 | 4.8 | 0.00 | 0.00 | 0.00 | 65 | 1030.6 |
| 20260510004551 | 15 | 74 | 0.0 | 4.8 | 0.00 | 0.00 | 0.00 | 64 | 1030.5 |
| 20260510004037 | 15 | 74 | 0.0 | 4.8 | 0.00 | 0.00 | 0.00 | 64 | 1030.5 |
| 20260510003539 | 14 | 70 | 0.0 | 4.8 | 0.00 | 0.00 | 0.00 | 64 | 1030.4 |
| 20260510003048 | 14 | 68 | 1.6 | 3.2 | 0.00 | 0.00 | 0.00 | 64 | 1030.5 |
| 20260510002538 | 14 | 67 | 1.6 | 4.8 | 0.00 | 0.00 | 0.00 | 64 | 1030.6 |
| 20260510002036 | 14 | 67 | 0.0 | 4.8 | 0.00 | 0.00 | 0.00 | 65 | 1030.5 |
| 20260510001549 | 14 | 67 | 1.6 | 4.8 | 0.00 | 0.00 | 0.00 | 64 | 1030.5 |
| 20260510001040 | 14 | 103 | 0.0 | 4.8 | 0.00 | 0.00 | 0.00 | 65 | 1030.4 |
| 20260510000541 | 14 | 0 | 1.6 | 6.4 | 0.00 | 0.00 | 0.00 | 65 | 1030.5 |
| 20260510000051 | 14 | 70 | 0.0 | 6.4 | 0.00 | 0.00 | 0.00 | 65 | 1030.5 |
| 20260509235543 | 14 | 34 | 1.6 | 4.8 | 0.00 | 0.00 | 0.00 | 65 | 1030.4 |
| 20260509235039 | 14 | 89 | 0.0 | 3.2 | 0.00 | 0.00 | 0.00 | 67 | 1030.4 |
| 20260509234549 | 13 | 89 | 0.0 | 3.2 | 0.00 | 0.00 | 0.00 | 69 | 1030.4 |
| 20260509234038 | 13 | 89 | 1.6 | 3.2 | 0.00 | 0.00 | 0.00 | 68 | 1030.5 |
| 20260509233539 | 13 | 0 | 0.0 | 3.2 | 0.00 | 0.00 | 0.00 | 67 | 1030.3 |
| 20260509233051 | 13 | 110 | 1.6 | 3.2 | 0.00 | 0.00 | 0.00 | 66 | 1030.3 |
| 20260509232539 | 13 | 108 | 1.6 | 8.0 | 0.00 | 0.00 | 0.00 | 66 | 1030.3 |
| 20260509232039 | 13 | 108 | 0.0 | 8.0 | 0.00 | 0.00 | 0.00 | 68 | 1030.3 |
| 20260509231550 | 13 | 127 | 1.6 | 6.4 | 0.00 | 0.00 | 0.00 | 67 | 1030.2 |
| 20260509231040 | 13 | 133 | 1.6 | 4.8 | 0.00 | 0.00 | 0.00 | 66 | 1030.2 |
| 20260509230540 | 13 | 98 | 1.6 | 4.8 | 0.00 | 0.00 | 0.00 | 68 | 1030.2 |
| 20260509230052 | 13 | 98 | 0.0 | 6.4 | 0.00 | 0.00 | 0.00 | 68 | 1030.2 |
| 20260509225539 | 13 | 98 | 3.2 | 6.4 | 0.00 | 0.00 | 0.00 | 70 | 1030.1 |
| 20260509225039 | 13 | 103 | 3.2 | 4.8 | 0.00 | 0.00 | 0.00 | 72 | 1030.1 |
| 20260509224549 | 13 | 116 | 3.2 | 4.8 | 0.00 | 0.00 | 0.00 | 71 | 1030.0 |
| 20260509224039 | 12 | 110 | 0.0 | 3.2 | 0.00 | 0.00 | 0.00 | 73 | 1030.0 |
| 20260509223539 | 12 | 0 | 0.0 | 3.2 | 0.00 | 0.00 | 0.00 | 75 | 1030.0 |
| 20260509223048 | 12 | 0 | 0.0 | 1.6 | 0.00 | 0.00 | 0.00 | 77 | 1029.9 |
| 20260509222539 | 12 | 0 | 0.0 | 1.6 | 0.00 | 0.00 | 0.00 | 77 | 1029.8 |
| 20260509222039 | 12 | 0 | 0.0 | 1.6 | 0.00 | 0.00 | 0.00 | 77 | 1029.9 |
| 20260509221550 | 12 | 110 | 0.0 | 1.6 | 0.00 | 0.00 | 0.00 | 76 | 1029.8 |
| 20260509221038 | 12 | 0 | 0.0 | 0.0 | 0.00 | 0.00 | 0.00 | 74 | 1029.8 |
| 20260509220539 | 12 | 0 | 0.0 | 1.6 | 0.00 | 0.00 | 0.00 | 73 | 1029.7 |
| 20260509220050 | 12 | 0 | 0.0 | 3.2 | 0.00 | 0.00 | 0.00 | 73 | 1029.7 |
| 20260509215541 | 12 | 0 | 0.0 | 4.8 | 0.00 | 0.00 | 0.00 | 74 | 1029.7 |
| 20260509215039 | 12 | 47 | 0.0 | 4.8 | 0.00 | 0.00 | 0.00 | 74 | 1029.6 |
| 20260509214549 | 12 | 0 | 0.0 | 4.8 | 0.00 | 0.00 | 0.00 | 75 | 1029.6 |
| 20260509214038 | 12 | 0 | 0.0 | 1.6 | 0.00 | 0.00 | 0.00 | 77 | 1029.5 |
| 20260509213539 | 12 | 0 | 0.0 | 0.0 | 0.00 | 0.00 | 0.00 | 79 | 1029.5 |
| 20260509213105 | 12 | 0 | 0.0 | 0.0 | 0.00 | 0.00 | 0.00 | 79 | 1029.4 |
| 20260509212539 | 12 | 0 | 0.0 | 1.6 | 0.00 | 0.00 | 0.00 | 79 | 1029.4 |
| 20260509212040 | 11 | 0 | 0.0 | 1.6 | 0.00 | 0.00 | 0.00 | 81 | 1029.3 |
| 20260509211559 | 11 | 0 | 0.0 | 1.6 | 0.00 | 0.00 | 0.00 | 81 | 1029.3 |
| 20260509211040 | 11 | 0 | 0.0 | 1.6 | 0.00 | 0.00 | 0.00 | 82 | 1029.2 |
| 20260509210540 | 11 | 0 | 0.0 | 1.6 | 0.00 | 0.00 | 0.00 | 82 | 1029.1 |
| 20260509210051 | 11 | 0 | 0.0 | 1.6 | 0.00 | 0.00 | 0.00 | 82 | 1029.1 |
| 20260509205544 | 11 | 0 | 0.0 | 3.2 | 0.00 | 0.00 | 0.00 | 81 | 1029.0 |
| 20260509205040 | 11 | 84 | 0.0 | 3.2 | 0.00 | 0.00 | 0.00 | 79 | 1029.0 |
| 20260509204549 | 12 | 0 | 0.0 | 0.0 | 0.00 | 0.00 | 0.00 | 79 | 1028.9 |
| 20260509204038 | 12 | 0 | 0.0 | 0.0 | 0.00 | 0.00 | 0.00 | 79 | 1028.9 |
| 20260509203542 | 12 | 0 | 0.0 | 0.0 | 0.00 | 0.00 | 0.00 | 78 | 1028.7 |
| 20260509203057 | 12 | 0 | 0.0 | 0.0 | 0.00 | 0.00 | 0.00 | 78 | 1028.6 |
| 20260509202541 | 12 | 0 | 0.0 | 3.2 | 0.00 | 0.00 | 0.00 | 78 | 1028.7 |
| 20260509202042 | 12 | 0 | 0.0 | 4.8 | 0.00 | 0.00 | 0.00 | 78 | 1028.6 |
| 20260509201603 | 12 | 0 | 0.0 | 4.8 | 0.00 | 0.00 | 0.00 | 78 | 1028.6 |
| 20260509201040 | 12 | 124 | 1.6 | 4.8 | 0.00 | 0.00 | 0.00 | 79 | 1028.4 |
| 20260509200541 | 12 | 0 | 0.0 | 3.2 | 0.00 | 0.00 | 0.00 | 80 | 1028.4 |
| 20260509200055 | 12 | 0 | 0.0 | 3.2 | 0.00 | 0.00 | 0.00 | 81 | 1028.4 |
| 20260509195540 | 12 | 0 | 0.0 | 1.6 | 0.00 | 0.00 | 0.00 | 82 | 1028.4 |
| 20260509195040 | 12 | 0 | 0.0 | 3.2 | 0.00 | 0.00 | 0.00 | 82 | 1028.5 |
| 20260509194558 | 12 | 0 | 0.0 | 3.2 | 0.00 | 0.00 | 0.00 | 82 | 1028.3 |
| 20260509194040 | 11 | 0 | 0.0 | 1.6 | 0.00 | 0.00 | 0.00 | 83 | 1028.2 |
| 20260509193539 | 11 | 0 | 0.0 | 1.6 | 0.00 | 0.00 | 0.00 | 83 | 1028.2 |
| 20260509193059 | 12 | 0 | 0.0 | 1.6 | 0.00 | 0.00 | 0.00 | 83 | 1028.1 |
| 20260509192538 | 12 | 0 | 0.0 | 0.0 | 0.00 | 0.00 | 0.00 | 83 | 1028.2 |
| 20260509192040 | 12 | 0 | 0.0 | 0.0 | 0.00 | 0.00 | 0.00 | 83 | 1028.2 |
| 20260509191604 | 12 | 0 | 0.0 | 0.0 | 0.00 | 0.00 | 0.00 | 83 | 1028.1 |
| 20260509191039 | 12 | 0 | 0.0 | 0.0 | 0.00 | 0.00 | 0.00 | 84 | 1028.0 |
| 20260509190540 | 12 | 0 | 0.0 | 1.6 | 0.00 | 0.00 | 0.00 | 84 | 1027.9 |
| 20260509190053 | 12 | 0 | 0.0 | 1.6 | 0.00 | 0.00 | 0.00 | 84 | 1027.9 |
| 20260509185541 | 12 | 0 | 0.0 | 1.6 | 0.00 | 0.00 | 0.00 | 83 | 1027.9 |
| 20260509185041 | 12 | 0 | 0.0 | 1.6 | 0.00 | 0.00 | 0.00 | 83 | 1027.8 |
| 20260509184601 | 12 | 0 | 0.0 | 0.0 | 0.00 | 0.00 | 0.00 | 83 | 1027.8 |
| 20260509184040 | 12 | 0 | 0.0 | 0.0 | 0.00 | 0.00 | 0.00 | 83 | 1027.8 |
| 20260509183540 | 12 | 0 | 0.0 | 0.0 | 0.00 | 0.00 | 0.00 | 83 | 1027.8 |
| 20260509183056 | 12 | 0 | 0.0 | 0.0 | 0.00 | 0.00 | 0.00 | 83 | 1027.8 |
| 20260509182538 | 12 | 0 | 0.0 | 0.0 | 0.00 | 0.00 | 0.00 | 82 | 1027.7 |
| 20260509182040 | 12 | 0 | 0.0 | 0.0 | 0.00 | 0.00 | 0.00 | 82 | 1027.8 |
| 20260509181552 | 12 | 0 | 0.0 | 0.0 | 0.00 | 0.00 | 0.00 | 82 | 1027.7 |
| 20260509181041 | 12 | 0 | 0.0 | 0.0 | 0.00 | 0.00 | 0.00 | 82 | 1027.8 |
| 20260509180538 | 12 | 0 | 0.0 | 0.0 | 0.00 | 0.00 | 0.00 | 81 | 1027.7 |
| 20260509180058 | 12 | 0 | 0.0 | 0.0 | 0.00 | 0.00 | 0.00 | 81 | 1027.7 |
| 20260509175542 | 12 | 0 | 0.0 | 0.0 | 0.00 | 0.00 | 0.00 | 81 | 1027.7 |
| 20260509175039 | 12 | 0 | 0.0 | 0.0 | 0.00 | 0.00 | 0.00 | 80 | 1027.8 |
| 20260509174548 | 12 | 0 | 0.0 | 0.0 | 0.00 | 0.00 | 0.00 | 80 | 1027.9 |
| 20260509174040 | 12 | 0 | 0.0 | 1.6 | 0.00 | 0.00 | 0.00 | 80 | 1027.9 |
| 20260509173538 | 12 | 0 | 0.0 | 3.2 | 0.00 | 0.00 | 0.00 | 80 | 1027.9 |
| 20260509173102 | 12 | 84 | 0.0 | 3.2 | 0.00 | 0.00 | 0.00 | 81 | 1027.9 |
| 20260509172540 | 12 | 0 | 0.0 | 1.6 | 0.00 | 0.00 | 0.00 | 80 | 1027.9 |
| 20260509172040 | 12 | 0 | 0.0 | 1.6 | 0.00 | 0.00 | 0.00 | 80 | 1027.9 |
| 20260509171547 | 12 | 82 | 0.0 | 3.2 | 0.00 | 0.00 | 0.00 | 81 | 1027.9 |
| 20260509171043 | 12 | 0 | 0.0 | 3.2 | 0.00 | 0.00 | 0.00 | 81 | 1027.9 |
| 20260509170539 | 12 | 0 | 0.0 | 1.6 | 0.00 | 0.00 | 0.00 | 82 | 1027.9 |
| 20260509170047 | 12 | 0 | 0.0 | 3.2 | 0.00 | 0.00 | 0.00 | 83 | 1027.9 |
| 20260509165539 | 13 | 0 | 0.0 | 4.8 | 0.00 | 0.00 | 0.00 | 83 | 1028.0 |
| 20260509165039 | 13 | 124 | 1.6 | 4.8 | 0.00 | 0.00 | 0.00 | 83 | 1028.0 |
| 20260509164551 | 12 | 124 | 3.2 | 4.8 | 0.00 | 0.00 | 0.00 | 84 | 1028.1 |
| 20260509164038 | 12 | 124 | 1.6 | 4.8 | 0.00 | 0.00 | 0.00 | 84 | 1028.0 |
| 20260509163538 | 12 | 124 | 3.2 | 8.0 | 0.00 | 0.00 | 0.00 | 85 | 1028.1 |
| 20260509163052 | 12 | 124 | 3.2 | 8.0 | 0.00 | 0.00 | 0.00 | 86 | 1028.1 |
| 20260509162539 | 12 | 98 | 1.6 | 4.8 | 0.00 | 0.00 | 0.00 | 86 | 1028.1 |
| 20260509162039 | 12 | 97 | 1.6 | 3.2 | 0.00 | 0.00 | 0.00 | 86 | 1028.2 |
| 20260509161601 | 12 | 98 | 1.6 | 3.2 | 0.00 | 0.00 | 0.00 | 86 | 1028.1 |
| 20260509161039 | 12 | 97 | 1.6 | 3.2 | 0.00 | 0.00 | 0.00 | 86 | 1028.1 |
| 20260509160541 | 12 | 97 | 0.0 | 3.2 | 0.00 | 0.00 | 0.00 | 87 | 1028.1 |
| 20260509160058 | 12 | 97 | 0.0 | 1.6 | 0.00 | 0.00 | 0.00 | 87 | 1028.1 |
| 20260509155539 | 12 | 0 | 0.0 | 1.6 | 0.00 | 0.00 | 0.00 | 88 | 1028.2 |
| 20260509155039 | 12 | 0 | 0.0 | 3.2 | 0.00 | 0.00 | 0.00 | 88 | 1028.2 |
| 20260509154552 | 12 | 0 | 0.0 | 3.2 | 0.00 | 0.00 | 0.00 | 88 | 1028.2 |
| 20260509154040 | 12 | 0 | 0.0 | 3.2 | 0.00 | 0.00 | 0.00 | 89 | 1028.3 |
| 20260509153539 | 12 | 0 | 0.0 | 3.2 | 0.00 | 0.00 | 0.00 | 89 | 1028.3 |
| 20260509153059 | 12 | 44 | 1.6 | 3.2 | 0.00 | 0.00 | 0.00 | 89 | 1028.3 |
| 20260509152540 | 12 | 0 | 0.0 | 1.6 | 0.00 | 0.00 | 0.00 | 89 | 1028.3 |
| 20260509152039 | 12 | 0 | 0.0 | 3.2 | 0.00 | 0.00 | 0.00 | 89 | 1028.4 |
| 20260509151552 | 12 | 122 | 0.0 | 3.2 | 0.00 | 0.00 | 0.00 | 89 | 1028.5 |
| 20260509151039 | 12 | 130 | 1.6 | 3.2 | 0.00 | 0.00 | 0.00 | 89 | 1028.6 |
| 20260509150539 | 12 | 132 | 1.6 | 3.2 | 0.00 | 0.00 | 0.00 | 89 | 1028.6 |
| 20260509150049 | 12 | 132 | 1.6 | 3.2 | 0.00 | 0.00 | 0.00 | 89 | 1028.7 |
| 20260509145540 | 12 | 132 | 1.6 | 3.2 | 0.00 | 0.00 | 0.00 | 89 | 1028.8 |
| 20260509145040 | 12 | 132 | 1.6 | 4.8 | 0.00 | 0.00 | 0.00 | 89 | 1028.8 |
| 20260509144555 | 12 | 132 | 3.2 | 6.4 | 0.00 | 0.00 | 0.00 | 89 | 1028.7 |
| 20260509144039 | 12 | 133 | 3.2 | 6.4 | 0.00 | 0.00 | 0.00 | 89 | 1028.8 |
| 20260509143540 | 12 | 122 | 3.2 | 6.4 | 0.00 | 0.00 | 0.00 | 89 | 1028.8 |
| 20260509143058 | 12 | 112 | 3.2 | 4.8 | 0.00 | 0.00 | 0.00 | 89 | 1028.8 |
| 20260509142540 | 12 | 111 | 1.6 | 4.8 | 0.00 | 0.00 | 0.00 | 89 | 1028.9 |
| 20260509142040 | 12 | 111 | 3.2 | 4.8 | 0.00 | 0.00 | 0.00 | 89 | 1028.9 |
| 20260509141550 | 12 | 111 | 1.6 | 4.8 | 0.00 | 0.00 | 0.00 | 89 | 1028.8 |
| 20260509141041 | 12 | 111 | 3.2 | 4.8 | 0.00 | 0.00 | 0.00 | 89 | 1028.9 |
| 20260509140542 | 12 | 111 | 3.2 | 4.8 | 0.00 | 0.00 | 0.00 | 89 | 1029.0 |
| 20260509140059 | 12 | 111 | 1.6 | 3.2 | 0.00 | 0.00 | 0.00 | 89 | 1028.9 |
| 20260509135539 | 12 | 111 | 1.6 | 3.2 | 0.00 | 0.00 | 0.00 | 89 | 1028.9 |
| 20260509135040 | 12 | 111 | 1.6 | 3.2 | 0.00 | 0.00 | 0.00 | 89 | 1028.8 |
| 20260509134554 | 12 | 0 | 0.0 | 1.6 | 0.00 | 0.00 | 0.00 | 89 | 1028.9 |
| 20260509134039 | 12 | 0 | 0.0 | 1.6 | 0.00 | 0.00 | 0.00 | 89 | 1028.8 |
| 20260509133539 | 12 | 0 | 0.0 | 4.8 | 0.00 | 0.00 | 0.00 | 89 | 1028.8 |
| 20260509133052 | 12 | 0 | 1.6 | 6.4 | 0.00 | 0.00 | 0.00 | 89 | 1028.9 |
| 20260509132540 | 12 | 112 | 3.2 | 6.4 | 0.00 | 0.00 | 0.00 | 89 | 1028.9 |
| 20260509132040 | 12 | 103 | 4.8 | 6.4 | 0.00 | 0.00 | 0.00 | 89 | 1029.0 |
| 20260509131555 | 12 | 129 | 4.8 | 9.7 | 0.00 | 0.00 | 0.00 | 88 | 1029.1 |
| 20260509131039 | 13 | 124 | 4.8 | 12.9 | 0.00 | 0.00 | 0.00 | 87 | 1029.0 |
| 20260509130539 | 13 | 125 | 6.4 | 16.1 | 0.00 | 0.00 | 0.00 | 85 | 1029.0 |
| 20260509130048 | 13 | 145 | 9.7 | 16.1 | 0.00 | 0.00 | 0.00 | 83 | 1029.0 |
| 20260509125539 | 13 | 132 | 9.7 | 16.1 | 0.00 | 0.00 | 0.00 | 82 | 1029.0 |
| 20260509125039 | 13 | 136 | 8.0 | 11.3 | 0.00 | 0.00 | 0.00 | 82 | 1029.0 |
| 20260509124551 | 13 | 134 | 8.0 | 12.9 | 0.00 | 0.00 | 0.00 | 82 | 1029.0 |
| 20260509124040 | 13 | 143 | 8.0 | 12.9 | 0.00 | 0.00 | 0.00 | 82 | 1028.9 |
| 20260509123540 | 13 | 145 | 8.0 | 12.9 | 0.00 | 0.00 | 0.00 | 82 | 1028.8 |
| 20260509123050 | 13 | 148 | 9.7 | 12.9 | 0.00 | 0.00 | 0.00 | 81 | 1028.9 |
| 20260509122541 | 13 | 136 | 8.0 | 12.9 | 0.00 | 0.00 | 0.00 | 81 | 1028.8 |
| 20260509122040 | 13 | 143 | 8.0 | 14.5 | 0.00 | 0.00 | 0.00 | 81 | 1029.0 |
| 20260509121550 | 13 | 141 | 8.0 | 14.5 | 0.00 | 0.00 | 0.00 | 81 | 1028.9 |
| 20260509121041 | 13 | 152 | 8.0 | 12.9 | 0.00 | 0.00 | 0.00 | 80 | 1029.1 |
| 20260509120541 | 13 | 136 | 8.0 | 14.5 | 0.00 | 0.00 | 0.00 | 79 | 1028.9 |
| 20260509120053 | 13 | 145 | 8.0 | 14.5 | 0.00 | 0.00 | 0.00 | 79 | 1029.0 |
| 20260509115539 | 13 | 140 | 8.0 | 14.5 | 0.00 | 0.00 | 0.00 | 79 | 1028.9 |
| 20260509115039 | 13 | 140 | 11.3 | 14.5 | 0.00 | 0.00 | 0.00 | 79 | 1028.9 |
| 20260509114546 | 13 | 131 | 8.0 | 12.9 | 0.00 | 0.00 | 0.00 | 79 | 1028.9 |
| 20260509114040 | 13 | 148 | 6.4 | 12.9 | 0.00 | 0.00 | 0.00 | 78 | 1028.9 |
| 20260509113539 | 13 | 142 | 8.0 | 12.9 | 0.00 | 0.00 | 0.00 | 78 | 1029.0 |
| 20260509113050 | 13 | 146 | 8.0 | 12.9 | 0.00 | 0.00 | 0.00 | 78 | 1028.9 |
| 20260509112540 | 13 | 139 | 8.0 | 12.9 | 0.00 | 0.00 | 0.00 | 78 | 1029.0 |
| 20260509112041 | 13 | 132 | 8.0 | 12.9 | 0.00 | 0.00 | 0.00 | 78 | 1029.0 |
| 20260509111544 | 13 | 150 | 8.0 | 12.9 | 0.00 | 0.00 | 0.00 | 78 | 1029.0 |
| 20260509111041 | 13 | 139 | 6.4 | 11.3 | 0.00 | 0.00 | 0.00 | 78 | 1029.0 |
| 20260509110540 | 13 | 143 | 8.0 | 11.3 | 0.00 | 0.00 | 0.00 | 78 | 1029.1 |
| 20260509110049 | 13 | 143 | 6.4 | 11.3 | 0.00 | 0.00 | 0.00 | 78 | 1029.1 |
| 20260509105540 | 13 | 147 | 6.4 | 11.3 | 0.00 | 0.00 | 0.00 | 78 | 1029.1 |
| 20260509105040 | 13 | 141 | 6.4 | 9.7 | 0.00 | 0.00 | 0.00 | 78 | 1029.1 |
| 20260509104554 | 13 | 135 | 6.4 | 9.7 | 0.00 | 0.00 | 0.00 | 78 | 1029.1 |
| 20260509104042 | 13 | 142 | 6.4 | 11.3 | 0.00 | 0.00 | 0.00 | 78 | 1029.0 |
| 20260509103539 | 13 | 129 | 6.4 | 11.3 | 0.00 | 0.00 | 0.00 | 77 | 1029.0 |
| 20260509103104 | 14 | 144 | 4.8 | 8.0 | 0.00 | 0.00 | 0.00 | 77 | 1028.9 |
| 20260509102539 | 14 | 139 | 4.8 | 8.0 | 0.00 | 0.00 | 0.00 | 77 | 1028.8 |
| 20260509102040 | 14 | 130 | 4.8 | 9.7 | 0.00 | 0.00 | 0.00 | 76 | 1028.8 |
| 20260509101546 | 14 | 151 | 4.8 | 11.3 | 0.00 | 0.00 | 0.00 | 76 | 1028.7 |
| 20260509101040 | 14 | 139 | 6.4 | 11.3 | 0.00 | 0.00 | 0.00 | 76 | 1028.6 |
| 20260509100540 | 14 | 143 | 6.4 | 11.3 | 0.00 | 0.00 | 0.00 | 76 | 1028.7 |
| 20260509100048 | 14 | 143 | 6.4 | 11.3 | 0.00 | 0.00 | 0.00 | 76 | 1028.7 |
| 20260509095538 | 14 | 146 | 6.4 | 12.9 | 0.00 | 0.00 | 0.00 | 76 | 1028.6 |
| 20260509095039 | 14 | 136 | 8.0 | 12.9 | 0.00 | 0.00 | 0.00 | 75 | 1028.6 |
| 20260509094600 | 14 | 144 | 8.0 | 12.9 | 0.00 | 0.00 | 0.00 | 75 | 1028.6 |
| 20260509094039 | 14 | 149 | 6.4 | 14.5 | 0.00 | 0.00 | 0.00 | 75 | 1028.6 |
| 20260509093540 | 14 | 134 | 9.7 | 17.7 | 0.00 | 0.00 | 0.00 | 75 | 1028.6 |
| 20260509093053 | 14 | 140 | 9.7 | 17.7 | 0.00 | 0.00 | 0.00 | 75 | 1028.7 |
| 20260509092544 | 14 | 154 | 11.3 | 20.9 | 0.00 | 0.00 | 0.00 | 74 | 1028.6 |
| 20260509092043 | 14 | 141 | 11.3 | 20.9 | 0.00 | 0.00 | 0.00 | 74 | 1028.6 |
| 20260509091556 | 15 | 148 | 11.3 | 19.3 | 0.00 | 0.00 | 0.00 | 73 | 1028.6 |
| 20260509091039 | 15 | 150 | 11.3 | 19.3 | 0.00 | 0.00 | 0.00 | 73 | 1028.5 |
| 20260509090540 | 15 | 146 | 11.3 | 19.3 | 0.00 | 0.00 | 0.00 | 73 | 1028.6 |
| 20260509090057 | 15 | 148 | 11.3 | 16.1 | 0.00 | 0.00 | 0.00 | 73 | 1028.5 |
| 20260509085543 | 15 | 153 | 9.7 | 17.7 | 0.00 | 0.00 | 0.00 | 72 | 1028.6 |
| 20260509085039 | 15 | 147 | 11.3 | 17.7 | 0.00 | 0.00 | 0.00 | 72 | 1028.6 |
| 20260509084604 | 15 | 153 | 9.7 | 17.7 | 0.00 | 0.00 | 0.00 | 71 | 1028.7 |
| 20260509084039 | 15 | 153 | 11.3 | 16.1 | 0.00 | 0.00 | 0.00 | 70 | 1028.5 |
| 20260509083540 | 15 | 137 | 9.7 | 16.1 | 0.00 | 0.00 | 0.00 | 69 | 1028.5 |
| 20260509083104 | 15 | 145 | 11.3 | 16.1 | 0.00 | 0.00 | 0.00 | 68 | 1028.5 |
| 20260509082541 | 15 | 150 | 12.9 | 16.1 | 0.00 | 0.00 | 0.00 | 67 | 1028.4 |
| 20260509082043 | 15 | 138 | 9.7 | 16.1 | 0.00 | 0.00 | 0.00 | 67 | 1028.3 |
| 20260509081554 | 15 | 146 | 11.3 | 16.1 | 0.00 | 0.00 | 0.00 | 67 | 1028.4 |
| 20260509081040 | 15 | 149 | 9.7 | 14.5 | 0.00 | 0.00 | 0.00 | 66 | 1028.2 |
| 20260509080540 | 16 | 143 | 11.3 | 16.1 | 0.00 | 0.00 | 0.00 | 66 | 1028.2 |
| 20260509080052 | 16 | 142 | 11.3 | 19.3 | 0.00 | 0.00 | 0.00 | 66 | 1028.2 |
| 20260509075540 | 16 | 137 | 11.3 | 19.3 | 0.00 | 0.00 | 0.00 | 67 | 1028.3 |
| 20260509075041 | 16 | 156 | 11.3 | 19.3 | 0.00 | 0.00 | 0.00 | 67 | 1028.2 |
| 20260509074609 | 16 | 128 | 12.9 | 17.7 | 0.00 | 0.00 | 0.00 | 67 | 1028.2 |
| 20260509074042 | 16 | 137 | 11.3 | 17.7 | 0.00 | 0.00 | 0.00 | 66 | 1028.1 |
| 20260509073543 | 16 | 147 | 11.3 | 20.9 | 0.00 | 0.00 | 0.00 | 66 | 1028.1 |
| 20260509073103 | 16 | 141 | 12.9 | 20.9 | 0.00 | 0.00 | 0.00 | 66 | 1028.1 |
| 20260509072541 | 16 | 160 | 12.9 | 20.9 | 0.00 | 0.00 | 0.00 | 66 | 1028.0 |
| 20260509072040 | 16 | 141 | 12.9 | 20.9 | 0.00 | 0.00 | 0.00 | 65 | 1027.9 |
| 20260509071556 | 16 | 153 | 14.5 | 20.9 | 0.00 | 0.00 | 0.00 | 65 | 1027.9 |
| 20260509071041 | 16 | 141 | 12.9 | 20.9 | 0.00 | 0.00 | 0.00 | 65 | 1027.8 |
| 20260509070541 | 16 | 152 | 11.3 | 22.5 | 0.00 | 0.00 | 0.00 | 65 | 1027.8 |
| 20260509070057 | 16 | 156 | 9.7 | 22.5 | 0.00 | 0.00 | 0.00 | 65 | 1027.8 |
| 20260509065542 | 16 | 150 | 12.9 | 20.9 | 0.00 | 0.00 | 0.00 | 65 | 1027.8 |
| 20260509065040 | 16 | 176 | 12.9 | 20.9 | 0.00 | 0.00 | 0.00 | 64 | 1027.8 |
| 20260509064547 | 16 | 160 | 14.5 | 20.9 | 0.00 | 0.00 | 0.00 | 64 | 1027.7 |
| 20260509064041 | 16 | 135 | 11.3 | 17.7 | 0.00 | 0.00 | 0.00 | 64 | 1027.8 |
| 20260509063540 | 16 | 131 | 12.9 | 17.7 | 0.00 | 0.00 | 0.00 | 63 | 1027.7 |
| 20260509063058 | 17 | 134 | 12.9 | 17.7 | 0.00 | 0.00 | 0.00 | 62 | 1027.6 |
| 20260509062541 | 17 | 132 | 11.3 | 17.7 | 0.00 | 0.00 | 0.00 | 62 | 1027.6 |
| 20260509062042 | 17 | 138 | 9.7 | 17.7 | 0.00 | 0.00 | 0.00 | 63 | 1027.6 |
| 20260509061548 | 17 | 134 | 11.3 | 17.7 | 0.00 | 0.00 | 0.00 | 62 | 1027.6 |